[[{"header":{"parameterUnit":"m.s-1","parameterCategory":2,"la1":30.2991,"la2":30.254,"lo1":-89.0895,"lo2":-89.0444,"dy":0.0017,"dx":0.0017,"nx":28,"ny":28,"refTime":"2023-07-31T09:00:00:Z","depth":"0","parameterNumber":2,"parameterNumberName":"U-component_of_CURRENTS"},"data":[0,0,0,0,0,0,0,0,0,0,0,0,0,0,0,0,0,0,0,0,0,0,0,0,0,0,0,0,0,0,0,0,0,0,0,0,0,0,0,0,0,0,0,0,0,0,0,0,0,0,0,0,0,0,0,0,0,0,-0.1693,-0.1695,0,-0.1804,-0.1804,-0.1804,-0.1813,-0.1813,-0.1812,-0.1812,-0.1804,-0.1804,-0.1804,0,0,0,0,0,0,0,0,0,0,0,0,0,-0.1469,-0.1472,-0.1693,-0.1695,-0.1698,-0.1803,-0.1804,-0.1805,-0.1813,-0.1813,-0.1812,-0.1812,-0.1804,-0.1804,-0.1804,0,0,0,0,0,0,0,0,0,0,0,0,0,-0.1562,-0.1473,-0.1693,-0.1722,-0.1726,-0.1803,-0.1804,-0.1805,-0.1813,-0.1813,-0.1812,-0.1812,-0.1804,-0.1804,-0.1804,-0.1815,0,0,-0.1805,-0.1805,0,0,0,0,0,0,0,0,-0.1557,-0.1569,-0.1715,-0.172,-0.1725,-0.1802,-0.1723,-0.1806,-0.1813,-0.177,-0.1812,-0.1811,-0.1799,-0.18,-0.1809,-0.1815,-0.1814,-0.1805,-0.1805,-0.1805,-0.1805,0,0,0,0,0,0,0,-0.1551,-0.1565,-0.1727,-0.1718,-0.1724,-0.1723,-0.1734,-0.1738,-0.1776,-0.1774,-0.1777,-0.1805,-0.1799,-0.1809,-0.1809,-0.1814,-0.1805,-0.1805,-0.1805,-0.1805,-0.1859,-0.1861,0,0,0,0,0,0,-0.1559,-0.1559,-0.1724,-0.1731,-0.1649,-0.1728,-0.1741,-0.177,-0.1779,-0.1784,-0.1805,-0.1805,-0.1809,-0.1809,-0.1809,-0.1846,-0.1805,-0.1805,-0.1805,-0.1858,-0.186,-0.1861,0,0,0,0,0,0,-0.1553,-0.1572,-0.172,-0.1655,-0.1675,-0.1733,-0.1766,-0.1773,-0.1786,-0.1806,-0.1806,-0.1812,-0.1809,-0.1809,-0.1838,-0.1844,-0.1805,-0.1805,-0.1856,-0.1859,-0.186,-0.1904,0,0,0,0,0,0,-0.1546,-0.157,-0.1581,-0.1656,-0.1679,-0.1769,-0.1768,-0.1776,-0.1809,-0.1809,-0.1812,-0.1811,-0.1809,-0.1839,-0.1839,-0.1844,-0.1805,-0.1855,-0.1857,-0.186,-0.1901,-0.1907,-0.1913,0,0,0,0,0,-0.1538,-0.156,-0.1581,-0.1601,-0.1697,-0.1771,-0.1781,-0.1814,-0.1809,-0.182,-0.1838,-0.1811,-0.1854,-0.1841,-0.184,-0.1845,-0.1853,-0.1857,-0.186,-0.1898,-0.1906,-0.1913,0,0,0,0,0,0,-0.1458,-0.1567,-0.159,-0.1641,-0.1704,-0.1776,-0.1791,-0.1816,-0.1839,-0.1833,-0.1837,-0.1839,-0.1864,-0.1855,-0.1841,-0.187,-0.1845,-0.1848,-0.1875,-0.1882,-0.1888,-0.1888,-0.1805,0,0,0,0,0,-0.1452,-0.1497,-0.1596,-0.163,-0.1666,-0.1726,-0.1755,-0.1786,-0.1828,-0.1836,-0.1848,-0.1858,-0.1877,-0.1881,-0.1893,-0.1911,-0.1911,-0.1913,-0.1919,-0.1924,-0.1925,-0.196,-0.197,-0.1871,-0.1871,-0.1871,0,0,-0.1428,-0.1495,-0.1517,-0.1617,-0.1661,-0.1713,-0.1739,-0.1792,-0.1822,-0.1831,-0.1859,-0.188,-0.1889,-0.1918,-0.1926,-0.191,-0.195,-0.1928,-0.1932,-0.193,-0.1965,-0.1974,-0.1983,-0.1873,-0.1873,-0.1873,0,0,-0.1405,-0.1466,-0.1496,-0.1556,-0.1646,-0.1696,-0.1714,-0.1795,-0.1816,-0.1861,-0.1879,-0.1922,-0.1928,-0.1962,-0.1971,-0.2018,-0.1985,-0.2002,-0.2027,-0.2062,-0.207,-0.2077,-0.208,-0.2087,-0.2001,-0.2001,-0.2001,0,-0.1366,-0.1428,-0.1511,-0.1559,-0.1605,-0.1688,-0.1725,-0.177,-0.1847,-0.187,-0.1867,-0.1936,-0.1953,-0.2006,-0.203,-0.2031,-0.2028,-0.1997,-0.2069,-0.2076,-0.2083,-0.2084,-0.2092,-0.2004,-0.2003,-0.2003,-0.2003,0,-0.1374,-0.1423,-0.1446,-0.1538,-0.1595,-0.1644,-0.1737,-0.1781,-0.1817,-0.1863,-0.1924,-0.1974,-0.2012,-0.203,-0.2043,-0.2102,-0.2077,-0.2076,-0.2049,-0.2096,-0.2094,-0.2101,-0.2007,-0.2006,-0.2005,-0.2005,0,0,-0.1291,-0.1424,-0.1431,-0.1469,-0.1591,-0.1639,-0.1703,-0.1788,-0.182,-0.1893,-0.1931,-0.2011,-0.2045,-0.2061,-0.2096,-0.214,-0.2196,-0.2126,-0.2127,-0.2124,-0.2244,-0.2171,-0.2171,-0.2201,-0.2202,-0.2204,-0.222,0,-0.1267,-0.134,-0.1418,-0.1478,-0.1527,-0.1626,-0.1675,-0.176,-0.1823,-0.1882,-0.1963,-0.2006,-0.2052,-0.207,-0.2132,-0.2176,-0.2217,-0.219,-0.2203,-0.2203,-0.2129,-0.2178,-0.2089,-0.2091,-0.2227,-0.2228,-0.2229,0,-0.1253,-0.1307,-0.1361,-0.1461,-0.1488,-0.1531,-0.1631,-0.1687,-0.1798,-0.1839,-0.1923,-0.1979,-0.2075,-0.2093,-0.2207,-0.218,-0.2219,-0.2254,-0.2255,-0.2175,-0.2143,-0.2069,-0.2098,-0.1952,-0.2239,-0.2238,-0.2237,0,-0.1174,-0.1268,-0.1306,-0.1345,-0.1468,-0.1496,-0.1554,-0.1665,-0.1706,-0.1811,-0.1838,-0.1963,-0.2,-0.2095,-0.2182,-0.219,-0.2279,-0.2294,-0.2267,-0.2261,-0.2183,-0.2166,-0.2068,-0.2372,-0.2372,-0.2372,-0.2372,0,-0.1144,-0.117,-0.1266,-0.1295,-0.1326,-0.1427,-0.1467,-0.1546,-0.1633,-0.1677,-0.1802,-0.1847,-0.2001,-0.2075,-0.2166,-0.2225,-0.2266,-0.2277,-0.2269,-0.2193,-0.2178,-0.2044,-0.201,-0.2373,-0.2373,-0.2372,-0.2372,0,-0.1079,-0.114,-0.1187,-0.1281,-0.1301,-0.1325,-0.1407,-0.1434,-0.1522,-0.158,-0.1605,-0.1748,-0.1834,-0.1966,-0.2099,-0.217,-0.2195,-0.2261,-0.2143,-0.2121,-0.1957,-0.1931,-0.1993,-0.1938,-0.224,-0.2238,-0.2237,0,-0.1062,-0.1077,-0.1158,-0.117,-0.121,-0.1249,-0.1273,-0.1369,-0.1399,-0.1519,-0.1534,-0.1629,-0.1701,-0.1853,-0.1983,-0.2102,-0.2095,-0.2088,-0.2107,-0.1931,-0.1898,-0.199,-0.1945,-0.202,-0.2017,-0.2014,-0.2012,0,-0.1019,-0.1042,-0.1083,-0.1101,-0.112,-0.1147,-0.1185,-0.119,-0.1297,-0.1348,-0.1418,-0.1478,-0.1616,-0.1706,-0.1843,-0.1921,-0.1982,-0.2039,-0.1903,-0.1753,-0.1806,-0.1751,-0.2001,-0.199,-0.1993,-0.1994,-0.1995,-0.1996,-0.0978,-0.0982,-0.1017,-0.1027,-0.1046,-0.1042,-0.1022,-0.1076,-0.1109,-0.1171,-0.1275,-0.1332,-0.1478,-0.1656,-0.1684,-0.1671,-0.1813,-0.1668,-0.1661,-0.1781,-0.1693,-0.1872,-0.1822,-0.1823,-0.1824,-0.1825,-0.1825,0,-0.0938,-0.0931,-0.0934,-0.0944,-0.0929,-0.0961,-0.0958,-0.0933,-0.0943,-0.1026,-0.1087,-0.1216,-0.1267,-0.1358,-0.1435,-0.1333,-0.139,-0.1264,-0.134,-0.1321,-0.1489,-0.1432,-0.1237,-0.1237,-0.1238,-0.1238,-0.1238,-0.1238,-0.0914,-0.0891,-0.0881,-0.0824,-0.082,-0.0762,-0.0737,-0.0728,-0.0752,-0.0811,-0.0887,-0.0981,-0.1121,-0.1199,-0.1065,-0.1014,-0.0952,-0.0979,-0.0973,-0.0999,-0.1035,-0.107,-0.1004,-0.0723,-0.0723,-0.0809,-0.0809,-0.0809]},{"header":{"parameterUnit":"m.s-1","parameterCategory":2,"la1":30.2991,"la2":30.254,"lo1":-89.0895,"lo2":-89.0444,"dy":0.0017,"dx":0.0017,"nx":28,"ny":28,"refTime":"2023-07-31T09:00:00:Z","depth":"0","parameterNumber":3,"parameterNumberName":"V-component_of_CURRENTS"},"data":[0,0,0,0,0,0,0,0,0,0,0,0,0,0,0,0,0,0,0,0,0,0,0,0,0,0,0,0,0,0,0,0,0,0,0,0,0,0,0,0,0,0,0,0,0,0,0,0,0,0,0,0,0,0,0,0,0,0,-0.1497,-0.1497,0,-0.1437,-0.1437,-0.1436,-0.1365,-0.1364,-0.1363,-0.1362,-0.1315,-0.1315,-0.1314,0,0,0,0,0,0,0,0,0,0,0,0,0,-0.1463,-0.1465,-0.1497,-0.1497,-0.1496,-0.1438,-0.1437,-0.1435,-0.1365,-0.1364,-0.1363,-0.1362,-0.1315,-0.1315,-0.1314,0,0,0,0,0,0,0,0,0,0,0,0,0,-0.1446,-0.1465,-0.1497,-0.1456,-0.1452,-0.1438,-0.1437,-0.1435,-0.1365,-0.1364,-0.1363,-0.1362,-0.1315,-0.1315,-0.1314,-0.1336,0,0,-0.1312,-0.1312,0,0,0,0,0,0,0,0,-0.1447,-0.1447,-0.1462,-0.1459,-0.1454,-0.1409,-0.1407,-0.1403,-0.1366,-0.1396,-0.1362,-0.1361,-0.135,-0.1347,-0.1335,-0.1333,-0.1331,-0.1312,-0.1311,-0.1311,-0.1311,0,0,0,0,0,0,0,-0.1449,-0.1449,-0.1471,-0.1462,-0.1457,-0.141,-0.1407,-0.1405,-0.1379,-0.1393,-0.1388,-0.1386,-0.1347,-0.1335,-0.1333,-0.1331,-0.1312,-0.1311,-0.1311,-0.131,-0.1354,-0.1355,0,0,0,0,0,0,-0.1468,-0.1451,-0.1473,-0.147,-0.145,-0.1413,-0.1409,-0.1423,-0.1379,-0.1372,-0.1387,-0.1383,-0.1337,-0.1334,-0.1331,-0.1364,-0.1311,-0.131,-0.131,-0.1352,-0.1354,-0.1356,0,0,0,0,0,0,-0.1467,-0.1471,-0.1476,-0.1459,-0.1457,-0.1416,-0.1432,-0.1423,-0.1405,-0.1375,-0.1367,-0.1378,-0.1336,-0.1332,-0.1362,-0.1362,-0.131,-0.1309,-0.135,-0.1353,-0.1355,-0.1425,0,0,0,0,0,0,-0.1467,-0.1472,-0.1485,-0.1462,-0.1459,-0.1467,-0.1433,-0.1423,-0.1407,-0.1401,-0.1365,-0.1359,-0.1335,-0.1364,-0.1362,-0.136,-0.1309,-0.1348,-0.1351,-0.1354,-0.142,-0.1429,-0.1436,0,0,0,0,0,-0.1466,-0.1489,-0.1487,-0.1489,-0.1481,-0.1467,-0.1461,-0.1424,-0.1408,-0.1403,-0.1408,-0.136,-0.1379,-0.1367,-0.1363,-0.136,-0.1347,-0.135,-0.1354,-0.1417,-0.1427,-0.1436,0,0,0,0,0,0,-0.1479,-0.1483,-0.1481,-0.1504,-0.1489,-0.1456,-0.1451,-0.1431,-0.1428,-0.1428,-0.1398,-0.1395,-0.1416,-0.1391,-0.1377,-0.1383,-0.1347,-0.1351,-0.1396,-0.1406,-0.1414,-0.1401,-0.1308,0,0,0,0,0,-0.1494,-0.1511,-0.1502,-0.1519,-0.1516,-0.1487,-0.1477,-0.1456,-0.145,-0.1444,-0.1428,-0.142,-0.1429,-0.1422,-0.1423,-0.1435,-0.1411,-0.1427,-0.1435,-0.1442,-0.1431,-0.1418,-0.1423,-0.1367,-0.1367,-0.1367,0,0,-0.1503,-0.1508,-0.1517,-0.1522,-0.1508,-0.1506,-0.1477,-0.1468,-0.1467,-0.1445,-0.1451,-0.1455,-0.1445,-0.1462,-0.1465,-0.1438,-0.1452,-0.1446,-0.1452,-0.1437,-0.1422,-0.1427,-0.1432,-0.137,-0.1369,-0.1369,0,0,-0.1518,-0.1538,-0.1549,-0.1541,-0.1531,-0.1521,-0.1523,-0.1502,-0.1495,-0.1515,-0.1504,-0.1521,-0.1515,-0.1511,-0.1509,-0.1564,-0.1505,-0.1551,-0.1568,-0.1557,-0.156,-0.1563,-0.1564,-0.1566,-0.1543,-0.1543,-0.1543,0,-0.1526,-0.1541,-0.1547,-0.1547,-0.154,-0.1532,-0.1529,-0.1532,-0.1525,-0.1527,-0.1524,-0.154,-0.1536,-0.1556,-0.1577,-0.1578,-0.1564,-0.1532,-0.1565,-0.1568,-0.1569,-0.1569,-0.1571,-0.1547,-0.1546,-0.1546,-0.1546,0,-0.1543,-0.1547,-0.1553,-0.1558,-0.1557,-0.1554,-0.156,-0.1567,-0.1568,-0.1562,-0.1587,-0.1603,-0.1599,-0.1607,-0.161,-0.1621,-0.1608,-0.1587,-0.1537,-0.1579,-0.1577,-0.1577,-0.1552,-0.1551,-0.155,-0.1549,0,0,-0.1568,-0.1564,-0.1564,-0.1552,-0.1558,-0.1554,-0.1579,-0.1585,-0.1588,-0.1606,-0.1609,-0.1648,-0.1644,-0.1643,-0.1647,-0.1642,-0.1665,-0.162,-0.1618,-0.1614,-0.1647,-0.1659,-0.166,-0.1645,-0.1645,-0.1645,-0.1649,0,-0.157,-0.1568,-0.1571,-0.1563,-0.1556,-0.1561,-0.1577,-0.1588,-0.16,-0.1611,-0.1636,-0.1644,-0.1661,-0.166,-0.1669,-0.1662,-0.1665,-0.1667,-0.1611,-0.1609,-0.1609,-0.1661,-0.1625,-0.1626,-0.1649,-0.1649,-0.1649,0,-0.158,-0.1573,-0.1567,-0.1546,-0.1546,-0.1547,-0.1559,-0.1569,-0.1597,-0.1603,-0.1626,-0.1639,-0.1665,-0.1662,-0.1673,-0.1671,-0.1665,-0.1661,-0.166,-0.1639,-0.1622,-0.1583,-0.1625,-0.1348,-0.1649,-0.1649,-0.1649,0,-0.1581,-0.1566,-0.1558,-0.1552,-0.1543,-0.1542,-0.1544,-0.1565,-0.1574,-0.1593,-0.1598,-0.1628,-0.1633,-0.1643,-0.1656,-0.1656,-0.1656,-0.1649,-0.1658,-0.1659,-0.16,-0.1596,-0.1357,-0.1647,-0.1647,-0.1647,-0.1647,0,-0.1579,-0.1563,-0.1553,-0.1544,-0.1531,-0.1529,-0.1527,-0.1534,-0.1551,-0.1566,-0.1589,-0.1607,-0.1623,-0.1638,-0.1651,-0.1665,-0.1652,-0.167,-0.1662,-0.1629,-0.1627,-0.136,-0.1121,-0.1647,-0.1647,-0.1647,-0.1647,0,-0.1567,-0.1566,-0.1543,-0.153,-0.1527,-0.1516,-0.1512,-0.1517,-0.1526,-0.1549,-0.1555,-0.1581,-0.16,-0.1625,-0.1629,-0.1647,-0.1487,-0.166,-0.1632,-0.1622,-0.1392,-0.1159,-0.0901,-0.0767,-0.1681,-0.1681,-0.1682,0,-0.1552,-0.1545,-0.1533,-0.1523,-0.1511,-0.1499,-0.1501,-0.1507,-0.1521,-0.1542,-0.1561,-0.1575,-0.1613,-0.1633,-0.1661,-0.169,-0.1441,-0.1642,-0.1643,-0.1372,-0.1105,-0.0985,-0.0881,-0.1599,-0.1599,-0.1599,-0.1598,0,-0.1512,-0.1518,-0.1502,-0.1496,-0.149,-0.1486,-0.1491,-0.1503,-0.1525,-0.1557,-0.1592,-0.1617,-0.1645,-0.1682,-0.1701,-0.1684,-0.1355,-0.1638,-0.1346,-0.1006,-0.0864,-0.0735,-0.1604,-0.1595,-0.1596,-0.1596,-0.1596,-0.1596,-0.1473,-0.146,-0.1457,-0.1449,-0.1452,-0.147,-0.147,-0.151,-0.1548,-0.1609,-0.1623,-0.1701,-0.1691,-0.1738,-0.1641,-0.1385,-0.1318,-0.1269,-0.1011,-0.0924,-0.076,-0.1637,-0.1626,-0.1626,-0.1627,-0.1627,-0.1627,0,-0.1414,-0.1415,-0.1409,-0.1406,-0.1416,-0.143,-0.146,-0.1481,-0.1545,-0.1659,-0.171,-0.1812,-0.1676,-0.1546,-0.1269,-0.0869,-0.0735,-0.0563,-0.0328,-0.0259,-0.1044,-0.1008,-0.0874,-0.0874,-0.0875,-0.0875,-0.0875,-0.0876,-0.1376,-0.1362,-0.1371,-0.1371,-0.1378,-0.1395,-0.1413,-0.1473,-0.1563,-0.1721,-0.1868,-0.1962,-0.1695,-0.085,-0.0258,-0.0105,0.0332,0.0429,0.0623,0.0169,0.0123,0.008,0.0162,0.0539,0.0542,0.1269,0.1278,0.1285]}],[{"header":{"parameterUnit":"m.s-1","parameterCategory":2,"la1":30.2991,"la2":30.254,"lo1":-89.0895,"lo2":-89.0444,"dy":0.0017,"dx":0.0017,"nx":28,"ny":28,"refTime":"2023-07-31T09:00:00:Z","depth":"2","parameterNumber":2,"parameterNumberName":"U-component_of_CURRENTS"},"data":[0,0,0,0,0,0,0,0,0,0,0,0,0,0,0,0,0,0,0,0,0,0,0,0,0,0,0,0,0,0,0,0,0,0,0,0,0,0,0,0,0,0,0,0,0,0,0,0,0,0,0,0,0,0,0,0,0,0,-0.2085,-0.2086,0,-0.2246,-0.2249,-0.2251,-0.2373,-0.2373,-0.2374,-0.2374,-0.2477,-0.2479,-0.2481,0,0,0,0,0,0,0,0,0,0,0,0,0,-0.1925,-0.1928,-0.2085,-0.2086,-0.2088,-0.2246,-0.2249,-0.2252,-0.2373,-0.2373,-0.2374,-0.2375,-0.2476,-0.2479,-0.2481,0,0,0,0,0,0,0,0,0,0,0,0,0,-0.2038,-0.1929,-0.2084,-0.2162,-0.217,-0.2245,-0.2249,-0.2252,-0.2373,-0.2373,-0.2374,-0.2375,-0.2475,-0.2478,-0.2482,-0.2488,0,0,-0.2492,-0.2493,0,0,0,0,0,0,0,0,-0.2031,-0.2044,-0.2149,-0.2157,-0.2166,-0.2284,-0.223,-0.2326,-0.2373,-0.2303,-0.2374,-0.2375,-0.2402,-0.2411,-0.2451,-0.2493,-0.2497,-0.2492,-0.2494,-0.2496,-0.2497,0,0,0,0,0,0,0,-0.2023,-0.2038,-0.2156,-0.2151,-0.2161,-0.2203,-0.2221,-0.225,-0.235,-0.2309,-0.2317,-0.2324,-0.2407,-0.2447,-0.2453,-0.2498,-0.2492,-0.2495,-0.2497,-0.2499,-0.2547,-0.2547,0,0,0,0,0,0,-0.1987,-0.2031,-0.215,-0.216,-0.2091,-0.2205,-0.2225,-0.2251,-0.2352,-0.2366,-0.2323,-0.2329,-0.2441,-0.2449,-0.2457,-0.2507,-0.2496,-0.2499,-0.2501,-0.2548,-0.2547,-0.2546,0,0,0,0,0,0,-0.1983,-0.1997,-0.2144,-0.2092,-0.2113,-0.2206,-0.2235,-0.2254,-0.2343,-0.2361,-0.2377,-0.2397,-0.2442,-0.2452,-0.2524,-0.2509,-0.25,-0.2504,-0.2549,-0.2548,-0.2547,-0.2581,0,0,0,0,0,0,-0.1978,-0.1995,-0.2011,-0.209,-0.2114,-0.219,-0.2235,-0.2256,-0.2339,-0.235,-0.2428,-0.2437,-0.2443,-0.2519,-0.2527,-0.2514,-0.2506,-0.255,-0.2548,-0.2547,-0.258,-0.2581,-0.2581,0,0,0,0,0,-0.1972,-0.1999,-0.2011,-0.2025,-0.2131,-0.219,-0.2207,-0.2279,-0.2342,-0.2369,-0.2443,-0.2437,-0.2513,-0.2524,-0.2533,-0.252,-0.2551,-0.2549,-0.2547,-0.258,-0.2581,-0.2581,0,0,0,0,0,0,-0.1959,-0.2015,-0.2031,-0.2078,-0.2122,-0.2208,-0.2244,-0.2309,-0.2396,-0.2413,-0.2466,-0.2478,-0.2519,-0.252,-0.253,-0.2522,-0.2514,-0.2515,-0.2536,-0.2537,-0.2537,-0.2494,-0.2509,0,0,0,0,0,-0.1951,-0.1974,-0.2034,-0.2068,-0.2094,-0.2181,-0.2223,-0.2266,-0.2343,-0.2388,-0.2451,-0.249,-0.251,-0.2532,-0.2544,-0.2572,-0.2532,-0.2553,-0.2554,-0.2554,-0.2522,-0.2518,-0.2515,-0.2541,-0.2541,-0.2541,0,0,-0.1951,-0.1985,-0.1999,-0.2062,-0.2113,-0.2149,-0.2213,-0.2271,-0.2308,-0.2378,-0.2471,-0.2505,-0.252,-0.2539,-0.2552,-0.2548,-0.2514,-0.2552,-0.2553,-0.2519,-0.2516,-0.2513,-0.2511,-0.254,-0.254,-0.254,0,0,-0.1957,-0.1998,-0.2017,-0.2053,-0.2107,-0.2144,-0.2171,-0.2268,-0.232,-0.2402,-0.2442,-0.2483,-0.2551,-0.2542,-0.2548,-0.2558,-0.2519,-0.2552,-0.2526,-0.2524,-0.2522,-0.252,-0.2418,-0.2407,-0.255,-0.255,-0.255,0,-0.1961,-0.1995,-0.2032,-0.2064,-0.2085,-0.2149,-0.2175,-0.2231,-0.2341,-0.237,-0.2422,-0.2505,-0.2537,-0.2532,-0.2534,-0.2557,-0.2522,-0.2536,-0.2527,-0.2524,-0.2521,-0.2418,-0.2405,-0.2552,-0.2552,-0.2551,-0.2551,0,-0.1983,-0.201,-0.2032,-0.2074,-0.2095,-0.213,-0.2177,-0.2227,-0.2305,-0.2355,-0.2403,-0.2458,-0.2499,-0.2507,-0.2538,-0.2515,-0.2481,-0.2536,-0.2532,-0.2521,-0.2411,-0.2397,-0.2554,-0.2553,-0.2553,-0.2553,0,0,-0.2012,-0.2039,-0.2049,-0.2059,-0.2102,-0.2127,-0.2156,-0.2196,-0.2253,-0.2316,-0.2375,-0.2403,-0.2442,-0.2446,-0.2475,-0.2472,-0.2431,-0.2499,-0.2499,-0.2403,-0.2354,-0.2267,-0.2242,-0.2509,-0.2508,-0.2507,-0.2268,0,-0.2029,-0.2061,-0.2061,-0.2085,-0.2113,-0.2132,-0.2169,-0.22,-0.2261,-0.2336,-0.2345,-0.2419,-0.2414,-0.2467,-0.2447,-0.247,-0.2403,-0.2484,-0.2369,-0.2362,-0.2296,-0.2228,-0.2102,-0.1875,-0.2254,-0.2251,-0.225,0,-0.2073,-0.2078,-0.2098,-0.2104,-0.2119,-0.2146,-0.219,-0.2233,-0.2297,-0.2345,-0.2363,-0.2405,-0.2388,-0.243,-0.2341,-0.2404,-0.2349,-0.2336,-0.2329,-0.2223,-0.2252,-0.1954,-0.1835,-0.2226,-0.2228,-0.223,-0.2231,0,-0.2094,-0.2111,-0.2116,-0.2126,-0.2148,-0.2168,-0.2202,-0.226,-0.2292,-0.2375,-0.239,-0.2388,-0.2387,-0.2355,-0.2292,-0.2342,-0.2186,-0.2261,-0.2076,-0.2066,-0.1915,-0.1895,-0.2147,-0.2147,-0.2147,-0.2148,-0.2149,0,-0.2125,-0.2154,-0.2146,-0.216,-0.219,-0.2213,-0.2268,-0.2311,-0.2366,-0.2379,-0.2411,-0.2383,-0.2379,-0.2293,-0.2261,-0.2088,-0.2137,-0.2015,-0.2003,-0.1916,-0.19,-0.2192,-0.2201,-0.2139,-0.2141,-0.2143,-0.2144,0,-0.2188,-0.2181,-0.2187,-0.2188,-0.2209,-0.2248,-0.2294,-0.2329,-0.2384,-0.2394,-0.2411,-0.2357,-0.2254,-0.2175,-0.2095,-0.2001,-0.1912,-0.1824,-0.1666,-0.164,-0.1785,-0.1798,-0.1595,-0.159,-0.1586,-0.1582,-0.1579,0,-0.2224,-0.2238,-0.2208,-0.22,-0.2217,-0.2274,-0.2308,-0.2361,-0.2378,-0.2353,-0.2336,-0.2233,-0.2123,-0.191,-0.1795,-0.1635,-0.1733,-0.1387,-0.1469,-0.172,-0.173,-0.1749,-0.1768,-0.1244,-0.1239,-0.1235,-0.1231,0,-0.2274,-0.2264,-0.2243,-0.2222,-0.2233,-0.2233,-0.2288,-0.2285,-0.2317,-0.2287,-0.2202,-0.2122,-0.1892,-0.1672,-0.1452,-0.1356,-0.1431,-0.1289,-0.1587,-0.1434,-0.138,-0.1394,-0.1424,-0.1191,-0.1195,-0.1198,-0.12,-0.1202,-0.2302,-0.2284,-0.2232,-0.2206,-0.2209,-0.2178,-0.2154,-0.2173,-0.2148,-0.2069,-0.2052,-0.1849,-0.1705,-0.133,-0.1188,-0.1032,-0.1138,-0.1055,-0.1073,-0.1094,-0.1128,-0.1073,-0.0824,-0.0826,-0.0828,-0.0829,-0.083,0,-0.2257,-0.224,-0.2221,-0.2147,-0.2081,-0.2128,-0.2107,-0.2034,-0.1955,-0.1925,-0.1835,-0.1457,-0.1253,-0.1111,-0.0823,-0.0716,-0.0747,-0.0658,-0.0731,-0.0767,-0.08,-0.0826,-0.0438,-0.0437,-0.0437,-0.0436,0,0,-0.2227,-0.2164,-0.213,-0.1999,-0.1978,-0.1901,-0.1851,-0.1755,-0.1708,-0.1531,-0.1398,-0.1404,-0.1213,-0.0935,-0.0784,-0.0606,-0.0725,-0.0555,-0.0867,-0.1006,-0.1041,-0.1004,-0.1079,0,0,0,0,0]},{"header":{"parameterUnit":"m.s-1","parameterCategory":2,"la1":30.2991,"la2":30.254,"lo1":-89.0895,"lo2":-89.0444,"dy":0.0017,"dx":0.0017,"nx":28,"ny":28,"refTime":"2023-07-31T09:00:00:Z","depth":"2","parameterNumber":3,"parameterNumberName":"V-component_of_CURRENTS"},"data":[0,0,0,0,0,0,0,0,0,0,0,0,0,0,0,0,0,0,0,0,0,0,0,0,0,0,0,0,0,0,0,0,0,0,0,0,0,0,0,0,0,0,0,0,0,0,0,0,0,0,0,0,0,0,0,0,0,0,-0.0081,-0.008,0,0.0043,0.0044,0.0046,0.0186,0.0187,0.0189,0.0191,0.066,0.0671,0.0682,0,0,0,0,0,0,0,0,0,0,0,0,0,-0.0144,-0.0144,-0.0081,-0.008,-0.0079,0.0042,0.0044,0.0047,0.0185,0.0187,0.0189,0.0191,0.0657,0.067,0.0683,0,0,0,0,0,0,0,0,0,0,0,0,0,-0.0074,-0.0144,-0.0082,0.0002,0.001,0.0042,0.0045,0.0047,0.0185,0.0187,0.019,0.0192,0.0653,0.0669,0.0685,0.0736,0,0,0.0735,0.0742,0,0,0,0,0,0,0,0,-0.0079,-0.0072,-0.0012,-0.0004,0.0005,0.0098,0.0194,0.0293,0.0184,0.0123,0.0191,0.0194,0.05,0.0529,0.0548,0.0758,0.0778,0.0736,0.0746,0.0753,0.0758,0,0,0,0,0,0,0,-0.0084,-0.0076,-0.0028,-0.0011,-0.0,0.0051,0.0064,0.0213,0.0306,0.0129,0.0138,0.0144,0.0508,0.0531,0.0561,0.0785,0.0736,0.0751,0.0761,0.0767,0.1178,0.1179,0,0,0,0,0,0,-0.0113,-0.0081,-0.0032,-0.0025,-0.0036,0.0049,0.0064,0.0069,0.0297,0.033,0.0142,0.015,0.0502,0.0541,0.0578,0.0744,0.0753,0.0769,0.0778,0.1177,0.1179,0.118,0,0,0,0,0,0,-0.0115,-0.011,-0.0037,-0.0053,-0.0041,0.0047,0.0052,0.007,0.0134,0.0302,0.0344,0.0192,0.0505,0.0555,0.075,0.076,0.0776,0.0791,0.1176,0.1178,0.1179,0.1018,0,0,0,0,0,0,-0.0118,-0.0112,-0.0117,-0.0056,-0.0041,-0.0025,0.005,0.007,0.0129,0.0143,0.0359,0.0401,0.0511,0.0724,0.0766,0.0783,0.0804,0.1175,0.1177,0.1179,0.1022,0.1014,0.1007,0,0,0,0,0,-0.012,-0.0128,-0.0118,-0.0112,-0.0052,-0.0027,-0.0015,0.006,0.0129,0.0134,0.0311,0.0397,0.0765,0.0739,0.0788,0.081,0.1174,0.1176,0.1179,0.1026,0.1016,0.1008,0,0,0,0,0,0,-0.0143,-0.0113,-0.0101,-0.0096,-0.0074,-0.0005,0.0015,0.0071,0.0206,0.0249,0.0431,0.0485,0.0657,0.076,0.0726,0.0934,0.0977,0.0989,0.0844,0.0836,0.0829,0.0731,0.0818,0,0,0,0,0,-0.0163,-0.0165,-0.0132,-0.0131,-0.0118,-0.0047,-0.0021,0.0022,0.0139,0.0199,0.0358,0.0535,0.0693,0.0787,0.0935,0.106,0.1093,0.1101,0.1094,0.1086,0.1041,0.106,0.1047,0.1188,0.1188,0.1188,0,0,-0.0173,-0.0157,-0.0158,-0.0139,-0.0103,-0.0091,-0.0022,0.0011,0.0043,0.0237,0.0375,0.0531,0.0725,0.0858,0.0941,0.0953,0.1078,0.1089,0.1081,0.1039,0.106,0.1045,0.1032,0.1189,0.1189,0.1189,0,0,-0.0195,-0.0179,-0.0189,-0.0175,-0.0146,-0.0113,-0.0099,-0.0018,0.0041,0.0174,0.0322,0.0458,0.0728,0.0814,0.091,0.0951,0.1044,0.1034,0.0914,0.0933,0.0919,0.0907,0.0968,0.0963,0.1018,0.1018,0.1018,0,-0.0206,-0.0215,-0.019,-0.019,-0.0185,-0.0118,-0.0125,-0.0065,0.0074,0.0114,0.0209,0.0518,0.0684,0.08,0.082,0.0925,0.0974,0.0928,0.0913,0.0903,0.0893,0.0958,0.0954,0.1011,0.1012,0.1012,0.1013,0,-0.0233,-0.0239,-0.0236,-0.0225,-0.0224,-0.0217,-0.0162,-0.0116,-0.0014,0.0046,0.0192,0.0388,0.0549,0.0634,0.0762,0.0785,0.0858,0.0902,0.0912,0.0867,0.0942,0.0941,0.1,0.1003,0.1005,0.1007,0,0,-0.0252,-0.0258,-0.0257,-0.0271,-0.0244,-0.0247,-0.0212,-0.0184,-0.0146,-0.0018,0.0036,0.0261,0.0333,0.0441,0.0588,0.0612,0.0621,0.0725,0.0729,0.0742,0.07,0.0686,0.0684,0.0666,0.0664,0.0663,0.0791,0,-0.0276,-0.0309,-0.0306,-0.033,-0.034,-0.0306,-0.0283,-0.0251,-0.0165,-0.009,0.0031,0.0174,0.0271,0.0376,0.0391,0.0606,0.0606,0.0584,0.0779,0.0784,0.0738,0.0676,0.0726,0.0836,0.079,0.079,0.0789,0,-0.0294,-0.0321,-0.0364,-0.0394,-0.0394,-0.0392,-0.0378,-0.0345,-0.0264,-0.0191,-0.012,0.0009,0.0106,0.0194,0.0367,0.0362,0.0485,0.0607,0.0616,0.0639,0.0763,0.0873,0.0836,0.0788,0.0788,0.0788,0.0788,0,-0.0328,-0.0357,-0.0404,-0.0408,-0.0424,-0.043,-0.0417,-0.0368,-0.033,-0.0248,-0.0185,-0.0102,0.0027,0.0124,0.0349,0.0383,0.0525,0.0611,0.0683,0.0689,0.078,0.0793,0.0639,0.0639,0.0639,0.0638,0.0638,0,-0.0357,-0.0379,-0.0411,-0.0434,-0.0467,-0.046,-0.0457,-0.0428,-0.0362,-0.033,-0.0231,-0.0179,0.0016,0.0131,0.0289,0.0468,0.0463,0.0625,0.0689,0.0735,0.0741,0.0737,0.0746,0.0643,0.0642,0.0641,0.064,0,-0.0364,-0.0391,-0.0441,-0.048,-0.0481,-0.0495,-0.0471,-0.0463,-0.0384,-0.0333,-0.0301,-0.0191,-0.0064,0.0093,0.0302,0.0433,0.0587,0.0632,0.0682,0.0746,0.0768,0.0769,0.0758,0.0758,0.0758,0.0758,0.0758,0,-0.0366,-0.0392,-0.0467,-0.0502,-0.051,-0.0513,-0.0518,-0.0471,-0.0457,-0.0353,-0.034,-0.0215,-0.0165,0.0106,0.0379,0.0603,0.0538,0.0736,0.0767,0.07,0.0766,0.0767,0.0768,0.0878,0.0878,0.0879,0.088,0,-0.0364,-0.0391,-0.0445,-0.0524,-0.0555,-0.0586,-0.0579,-0.058,-0.0522,-0.0477,-0.044,-0.039,-0.0093,0.0168,0.0457,0.0585,0.0704,0.0756,0.067,0.0804,0.0812,0.0877,0.0875,0.0886,0.0886,0.0885,0.0885,0.0885,-0.0339,-0.0392,-0.0474,-0.0547,-0.0593,-0.0654,-0.0678,-0.0683,-0.068,-0.0576,-0.0513,-0.0312,-0.0024,0.0462,0.0579,0.0758,0.0801,0.0857,0.0856,0.0854,0.0808,0.0811,0.0881,0.0881,0.088,0.088,0.0879,0,-0.0321,-0.04,-0.0486,-0.0602,-0.0684,-0.0673,-0.0719,-0.0739,-0.0767,-0.0563,-0.0467,-0.0097,0.022,0.0448,0.0815,0.0964,0.0977,0.0874,0.0898,0.0894,0.0891,0.0845,0.0929,0.0928,0.0928,0.0927,0,0,-0.0316,-0.0422,-0.0504,-0.0661,-0.0719,-0.0786,-0.0817,-0.0837,-0.0708,-0.0565,-0.0284,0.0099,0.0397,0.0637,0.077,0.086,0.0817,0.0834,0.0806,0.0818,0.081,0.0918,0.0848,0,0,0,0,0]}],[{"header":{"parameterUnit":"m.s-1","parameterCategory":2,"la1":30.2991,"la2":30.254,"lo1":-89.0895,"lo2":-89.0444,"dy":0.0017,"dx":0.0017,"nx":28,"ny":28,"refTime":"2023-07-31T09:00:00:Z","depth":"4","parameterNumber":2,"parameterNumberName":"U-component_of_CURRENTS"},"data":[0,0,0,0,0,0,0,0,0,0,0,0,0,0,0,0,0,0,0,0,0,0,0,0,0,0,0,0,0,0,0,0,0,0,0,0,0,0,0,0,0,0,0,0,0,0,0,0,0,0,0,0,0,0,0,0,0,0,-0.1318,-0.1318,0,-0.1374,-0.1374,-0.1375,-0.1406,-0.1406,-0.1406,-0.1406,-0.145,-0.1451,-0.1452,0,0,0,0,0,0,0,0,0,0,0,0,0,-0.1256,-0.1257,-0.1318,-0.1318,-0.1319,-0.1374,-0.1374,-0.1375,-0.1406,-0.1406,-0.1406,-0.1406,-0.145,-0.1451,-0.1452,0,0,0,0,0,0,0,0,0,0,0,0,0,-0.1294,-0.1257,-0.1317,-0.1341,-0.1344,-0.1374,-0.1374,-0.1375,-0.1406,-0.1406,-0.1406,-0.1406,-0.1449,-0.1451,-0.1452,-0.146,0,0,-0.1457,-0.1458,0,0,0,0,0,0,0,0,-0.1292,-0.1297,-0.1337,-0.1339,-0.1342,-0.1383,-0.1369,-0.1403,-0.1406,-0.1382,-0.1406,-0.1406,-0.1426,-0.143,-0.144,-0.1462,-0.1464,-0.1457,-0.1458,-0.1459,-0.146,0,0,0,0,0,0,0,-0.129,-0.1295,-0.134,-0.1337,-0.1341,-0.1355,-0.1361,-0.1376,-0.1403,-0.1384,-0.1387,-0.1393,-0.1428,-0.1439,-0.1441,-0.1465,-0.1457,-0.1459,-0.146,-0.146,-0.155,-0.1552,0,0,0,0,0,0,-0.1282,-0.1292,-0.1338,-0.1342,-0.1317,-0.1356,-0.1362,-0.137,-0.1403,-0.1408,-0.1393,-0.1394,-0.1436,-0.144,-0.1443,-0.1492,-0.1459,-0.1461,-0.1462,-0.1549,-0.1551,-0.1552,0,0,0,0,0,0,-0.128,-0.1285,-0.1336,-0.1318,-0.1325,-0.1357,-0.1365,-0.1371,-0.1401,-0.1409,-0.1414,-0.1419,-0.1436,-0.1441,-0.1475,-0.1493,-0.1461,-0.1463,-0.1547,-0.1549,-0.1551,-0.1566,0,0,0,0,0,0,-0.1278,-0.1284,-0.1298,-0.1317,-0.1326,-0.1365,-0.1365,-0.1372,-0.1403,-0.1406,-0.1433,-0.1436,-0.1436,-0.1473,-0.1477,-0.1494,-0.1464,-0.1546,-0.1548,-0.1551,-0.1564,-0.1568,-0.1572,0,0,0,0,0,-0.1276,-0.1291,-0.1298,-0.1304,-0.134,-0.1366,-0.1373,-0.1395,-0.1404,-0.1422,-0.1442,-0.1436,-0.1493,-0.1476,-0.148,-0.1498,-0.1544,-0.1547,-0.1551,-0.1562,-0.1567,-0.1572,0,0,0,0,0,0,-0.127,-0.1297,-0.1304,-0.1327,-0.135,-0.1372,-0.1393,-0.1407,-0.1438,-0.1447,-0.1453,-0.1458,-0.1491,-0.15,-0.1481,-0.1534,-0.1518,-0.1523,-0.1526,-0.1531,-0.1535,-0.1547,-0.1466,0,0,0,0,0,-0.1274,-0.1296,-0.1318,-0.1338,-0.1351,-0.1376,-0.1394,-0.141,-0.1434,-0.145,-0.1465,-0.1487,-0.1506,-0.1523,-0.1537,-0.157,-0.1564,-0.1587,-0.1591,-0.1594,-0.1609,-0.1621,-0.1627,-0.1563,-0.1563,-0.1562,0,0,-0.1278,-0.1296,-0.1309,-0.1339,-0.136,-0.1383,-0.1388,-0.1423,-0.1445,-0.1449,-0.1489,-0.15,-0.1517,-0.1548,-0.1565,-0.156,-0.1605,-0.1599,-0.1601,-0.1614,-0.1625,-0.1631,-0.1636,-0.1565,-0.1564,-0.1564,0,0,-0.1287,-0.1312,-0.133,-0.1352,-0.1387,-0.1404,-0.1418,-0.145,-0.1471,-0.1506,-0.1513,-0.1548,-0.1571,-0.1593,-0.1605,-0.1648,-0.1622,-0.1647,-0.1683,-0.1693,-0.1698,-0.1703,-0.1675,-0.1677,-0.1654,-0.1654,-0.1654,0,-0.1288,-0.1315,-0.134,-0.1361,-0.1386,-0.1414,-0.144,-0.1464,-0.1503,-0.1526,-0.1522,-0.1579,-0.1596,-0.164,-0.1656,-0.1658,-0.1641,-0.1656,-0.1697,-0.1701,-0.1706,-0.1676,-0.1678,-0.1655,-0.1655,-0.1655,-0.1655,0,-0.1301,-0.1333,-0.1348,-0.1385,-0.1414,-0.1445,-0.1478,-0.151,-0.1537,-0.1558,-0.1607,-0.1631,-0.1667,-0.1676,-0.168,-0.1724,-0.1692,-0.1692,-0.1678,-0.1713,-0.168,-0.1681,-0.1657,-0.1656,-0.1656,-0.1656,0,0,-0.1271,-0.1344,-0.135,-0.1379,-0.1434,-0.1458,-0.1504,-0.1551,-0.1583,-0.1619,-0.1659,-0.1705,-0.172,-0.1736,-0.1746,-0.1767,-0.1777,-0.1746,-0.1746,-0.1707,-0.1765,-0.1621,-0.1608,-0.1774,-0.1775,-0.1776,-0.1718,0,-0.1274,-0.1322,-0.1361,-0.1415,-0.1443,-0.1494,-0.1532,-0.1581,-0.1617,-0.1659,-0.1699,-0.1734,-0.1739,-0.1757,-0.1781,-0.1782,-0.1787,-0.1791,-0.1748,-0.1746,-0.1606,-0.1608,-0.1779,-0.1719,-0.172,-0.172,-0.172,0,-0.1264,-0.1305,-0.1359,-0.1438,-0.1456,-0.1494,-0.1569,-0.1606,-0.167,-0.1697,-0.1744,-0.1763,-0.1812,-0.1804,-0.1823,-0.1819,-0.1799,-0.1792,-0.1789,-0.1656,-0.1606,-0.1687,-0.1723,-0.1722,-0.1722,-0.1722,-0.1722,0,-0.1222,-0.1301,-0.1351,-0.1377,-0.1465,-0.1506,-0.1552,-0.1621,-0.1647,-0.172,-0.1735,-0.1795,-0.1805,-0.1821,-0.1807,-0.1815,-0.1801,-0.1807,-0.1654,-0.1642,-0.1783,-0.1779,-0.1813,-0.1814,-0.1814,-0.1814,-0.1814,0,-0.1199,-0.124,-0.134,-0.1364,-0.1421,-0.1492,-0.1547,-0.1598,-0.1658,-0.168,-0.1747,-0.1745,-0.1809,-0.1803,-0.1805,-0.1716,-0.1793,-0.1655,-0.1622,-0.1786,-0.1784,-0.1781,-0.1779,-0.1812,-0.1812,-0.1813,-0.1813,0,-0.1137,-0.1208,-0.1263,-0.1367,-0.14,-0.1437,-0.1524,-0.1555,-0.1619,-0.1645,-0.1663,-0.1701,-0.1674,-0.1705,-0.1708,-0.1671,-0.1636,-0.1584,-0.173,-0.1707,-0.147,-0.1469,-0.1409,-0.1404,-0.1399,-0.1395,-0.1392,0,-0.1106,-0.1131,-0.1241,-0.1274,-0.1325,-0.1393,-0.1434,-0.1521,-0.1544,-0.1592,-0.1586,-0.1577,-0.159,-0.1458,-0.1519,-0.1487,-0.1477,-0.1457,-0.1497,-0.1456,-0.1431,-0.1438,-0.1443,-0.1385,-0.1384,-0.1382,-0.1381,0,-0.104,-0.1089,-0.1139,-0.12,-0.1258,-0.1304,-0.1367,-0.1368,-0.1453,-0.1521,-0.1447,-0.1414,-0.1361,-0.1343,-0.1313,-0.1307,-0.1483,-0.1409,-0.142,-0.1457,-0.1426,-0.1407,-0.1418,-0.1365,-0.1367,-0.1369,-0.137,0,-0.0988,-0.1,-0.1068,-0.1112,-0.1173,-0.1188,-0.1241,-0.1252,-0.1273,-0.1338,-0.13,-0.1293,-0.1325,-0.1244,-0.123,-0.1196,-0.1189,-0.1186,-0.1208,-0.1226,-0.1197,-0.1133,-0.0946,0,0,0,0,0,-0.0925,-0.0935,-0.0971,-0.1014,-0.1066,-0.1095,-0.1182,-0.1238,-0.1321,-0.1227,-0.1256,-0.1198,-0.1127,-0.1123,-0.1048,-0.1168,-0.1216,-0.1081,-0.123,-0.1276,-0.1295,-0.128,0,0,0,0,0,0,-0.0889,-0.0923,-0.0938,-0.0913,-0.0915,-0.0958,-0.1007,-0.1074,-0.1028,-0.1106,-0.1057,-0.1117,-0.1055,-0.1122,-0.1009,-0.1015,-0.1087,-0.1091,-0.1088,-0.1266,-0.1282,-0.1297,-0.1289,0,0,0,0,0]},{"header":{"parameterUnit":"m.s-1","parameterCategory":2,"la1":30.2991,"la2":30.254,"lo1":-89.0895,"lo2":-89.0444,"dy":0.0017,"dx":0.0017,"nx":28,"ny":28,"refTime":"2023-07-31T09:00:00:Z","depth":"4","parameterNumber":3,"parameterNumberName":"V-component_of_CURRENTS"},"data":[0,0,0,0,0,0,0,0,0,0,0,0,0,0,0,0,0,0,0,0,0,0,0,0,0,0,0,0,0,0,0,0,0,0,0,0,0,0,0,0,0,0,0,0,0,0,0,0,0,0,0,0,0,0,0,0,0,0,-0.0177,-0.0177,0,-0.0165,-0.0165,-0.0164,-0.0139,-0.0138,-0.0138,-0.0138,-0.0095,-0.0094,-0.0093,0,0,0,0,0,0,0,0,0,0,0,0,0,-0.0161,-0.0161,-0.0177,-0.0177,-0.0177,-0.0165,-0.0165,-0.0164,-0.0139,-0.0138,-0.0138,-0.0137,-0.0095,-0.0094,-0.0093,0,0,0,0,0,0,0,0,0,0,0,0,0,-0.0159,-0.0161,-0.0177,-0.0164,-0.0163,-0.0165,-0.0165,-0.0164,-0.0139,-0.0138,-0.0138,-0.0137,-0.0095,-0.0094,-0.0093,-0.0096,0,0,-0.0089,-0.0089,0,0,0,0,0,0,0,0,-0.0159,-0.0159,-0.0166,-0.0165,-0.0164,-0.0154,-0.0143,-0.014,-0.0139,-0.0146,-0.0138,-0.0137,-0.0113,-0.011,-0.0107,-0.0094,-0.0092,-0.0089,-0.0088,-0.0088,-0.0087,0,0,0,0,0,0,0,-0.0159,-0.0159,-0.0171,-0.0166,-0.0165,-0.0153,-0.0152,-0.0142,-0.0131,-0.0146,-0.0144,-0.0146,-0.0112,-0.0109,-0.0106,-0.0092,-0.0089,-0.0088,-0.0087,-0.0087,-0.0081,-0.0081,0,0,0,0,0,0,-0.0166,-0.016,-0.0171,-0.017,-0.0162,-0.0154,-0.0153,-0.0156,-0.0132,-0.0128,-0.0146,-0.0144,-0.0111,-0.0108,-0.0105,-0.0113,-0.0088,-0.0087,-0.0086,-0.008,-0.0081,-0.0081,0,0,0,0,0,0,-0.0165,-0.0167,-0.0172,-0.0166,-0.0166,-0.0155,-0.0159,-0.0157,-0.0155,-0.0133,-0.0128,-0.0147,-0.011,-0.0106,-0.0099,-0.011,-0.0086,-0.0085,-0.0079,-0.008,-0.0081,-0.0125,0,0,0,0,0,0,-0.0165,-0.0167,-0.0173,-0.0166,-0.0166,-0.0179,-0.016,-0.0157,-0.0157,-0.0155,-0.0132,-0.0128,-0.011,-0.0101,-0.0098,-0.0108,-0.0084,-0.0079,-0.008,-0.0081,-0.0123,-0.0127,-0.0131,0,0,0,0,0,-0.0164,-0.0177,-0.0174,-0.0175,-0.0175,-0.018,-0.0179,-0.0168,-0.0158,-0.0162,-0.0145,-0.0128,-0.0105,-0.0101,-0.0097,-0.0107,-0.0078,-0.0079,-0.0081,-0.0121,-0.0126,-0.0131,0,0,0,0,0,0,-0.0174,-0.0176,-0.0172,-0.0185,-0.0185,-0.0176,-0.018,-0.0173,-0.0163,-0.0159,-0.0135,-0.0129,-0.0129,-0.0113,-0.0108,-0.0109,-0.009,-0.009,-0.0122,-0.0126,-0.013,-0.0125,-0.0083,0,0,0,0,0,-0.018,-0.019,-0.0188,-0.0199,-0.02,-0.0191,-0.0191,-0.0185,-0.0176,-0.0171,-0.0157,-0.0141,-0.0132,-0.0124,-0.0115,-0.0114,-0.0071,-0.0118,-0.0123,-0.0126,-0.012,-0.0048,-0.0044,-0.0085,-0.0085,-0.0085,0,0,-0.0188,-0.019,-0.0196,-0.0201,-0.0198,-0.0209,-0.0189,-0.0194,-0.02,-0.0168,-0.0172,-0.0157,-0.0136,-0.0136,-0.0134,-0.0123,-0.0097,-0.0128,-0.0131,-0.0122,-0.0049,-0.0044,-0.004,-0.0086,-0.0086,-0.0086,0,0,-0.0211,-0.0208,-0.0225,-0.0228,-0.023,-0.0224,-0.0228,-0.0224,-0.0219,-0.0223,-0.0201,-0.0185,-0.0181,-0.0158,-0.0148,-0.0167,-0.0123,-0.0176,-0.0189,-0.012,-0.0115,-0.011,-0.007,-0.0061,-0.0175,-0.0175,-0.0175,0,-0.0221,-0.024,-0.0231,-0.0246,-0.0254,-0.0235,-0.0255,-0.0247,-0.0242,-0.0238,-0.0231,-0.0206,-0.0187,-0.0171,-0.018,-0.0174,-0.0138,-0.0173,-0.0123,-0.0117,-0.0112,-0.0071,-0.006,-0.0177,-0.0177,-0.0177,-0.0177,0,-0.0255,-0.0271,-0.028,-0.0294,-0.03,-0.0313,-0.0305,-0.0304,-0.0296,-0.0286,-0.0273,-0.0242,-0.0222,-0.0219,-0.0206,-0.017,-0.0159,-0.0137,-0.0107,-0.011,-0.0067,-0.0056,-0.0181,-0.018,-0.0179,-0.0178,0,0,-0.0278,-0.0302,-0.0305,-0.0323,-0.0327,-0.0338,-0.0343,-0.0343,-0.0346,-0.0325,-0.0324,-0.0293,-0.0267,-0.0252,-0.0228,-0.0171,-0.0108,-0.0144,-0.0139,-0.0099,0.0027,0.0029,0.0043,-0.0074,-0.0072,-0.0071,0.0034,0,-0.0309,-0.0351,-0.0353,-0.0392,-0.0413,-0.0399,-0.0411,-0.0403,-0.0389,-0.0381,-0.0328,-0.0321,-0.0282,-0.0278,-0.0211,-0.0145,-0.0077,-0.014,0.0019,0.0024,0.0032,0.0057,-0.0064,0.0043,0.0045,0.0047,0.0049,0,-0.0343,-0.0367,-0.0414,-0.0446,-0.0454,-0.0473,-0.0481,-0.0487,-0.0457,-0.0445,-0.0404,-0.0372,-0.0308,-0.0268,-0.0118,-0.0162,-0.0066,0.0001,0.0008,0.0038,0.0049,0.0051,0.0071,0.0069,0.0067,0.0066,0.0064,0,-0.0367,-0.041,-0.045,-0.0461,-0.0492,-0.0508,-0.0518,-0.0506,-0.0513,-0.0481,-0.0483,-0.0396,-0.037,-0.0226,-0.0104,-0.0103,0.0066,0.009,0.0192,0.0192,0.0177,0.0172,0.0233,0.0233,0.0233,0.0232,0.0232,0,-0.0398,-0.0432,-0.0467,-0.049,-0.0538,-0.0543,-0.0577,-0.0572,-0.0565,-0.0572,-0.0516,-0.0495,-0.0355,-0.0256,-0.0111,0.0061,0.0071,0.0201,0.023,0.0151,0.0141,0.0184,0.0177,0.0236,0.0235,0.0235,0.0234,0,-0.042,-0.0442,-0.0493,-0.0536,-0.0553,-0.0585,-0.0624,-0.0642,-0.0633,-0.0638,-0.0634,-0.0568,-0.0435,-0.0292,-0.0082,0.0033,0.0208,0.0276,0.0152,0.0171,0.0292,0.0281,0.0412,0.0413,0.0414,0.0415,0.0416,0,-0.0435,-0.0463,-0.0526,-0.0561,-0.0585,-0.0632,-0.0663,-0.0672,-0.0683,-0.0668,-0.0667,-0.0578,-0.0507,-0.0219,-0.0062,0.0202,0.0249,0.0327,0.0347,0.0301,0.0316,0.0304,0.0292,0.0417,0.0417,0.0418,0.0418,0,-0.0464,-0.0485,-0.0526,-0.0596,-0.0643,-0.0695,-0.0732,-0.0744,-0.0744,-0.0745,-0.0663,-0.0534,-0.0397,-0.0195,-0.0019,0.0182,0.0267,0.034,0.034,0.0359,0.0309,0.0321,0.0308,0.0422,0.0421,0.0421,0.0421,0,-0.0482,-0.0517,-0.0569,-0.0626,-0.0692,-0.0738,-0.0755,-0.0748,-0.0749,-0.0713,-0.068,-0.0533,-0.0454,-0.0203,-0.0024,0.0145,0.0213,0.0285,0.0289,0.0287,0.0217,0.0132,0.023,0,0,0,0,0,-0.0497,-0.0538,-0.0597,-0.0667,-0.0729,-0.0761,-0.0796,-0.0799,-0.0794,-0.0727,-0.0695,-0.0549,-0.0295,-0.0196,-0.0017,-0.0006,0.0222,0.0208,0.0302,0.0442,0.0437,0.0376,0,0,0,0,0,0,-0.0515,-0.0569,-0.0598,-0.0682,-0.0731,-0.0798,-0.0816,-0.0812,-0.0755,-0.0723,-0.0583,-0.0503,-0.0258,-0.04,-0.0017,0.003,0.0118,0.0325,0.0329,0.0444,0.044,0.0437,0.0373,0,0,0,0,0]}]]